Change the Weather History Date:

Tuesday, March 19, 2013

  Actual Average Record
Temperature  
Mean Temperature 38 °F 41 °F  
Max Temperature 47 °F 53 °F 84 °F (1921)
Min Temperature 28 °F 30 °F 0 °F (1965)
Degree Days  
Heating Degree Days 27 24  
Month to date heating degree days 540 520  
Since 1 July heating degree days 5167 5150  
Cooling Degree Days 0 0  
Month to date cooling degree days 0 0  
Year to date cooling degree days 0 0  
Moisture  
Dew Point 28 °F    
Average Humidity 67    
Maximum Humidity 92    
Minimum Humidity 41    
Precipitation  
Precipitation 0.06 in 0.06 in 1.37 in (1964)
Month to date precipitation 1.72 0.88  
Year to date precipitation 2.94 1.78  
Snow  
Snow T in 0.20 in 10.00 in (1977)
Month to date snowfall 5.5 3.5  
Since 1 July snowfall 29.3 25.9  
Snow Depth 0.00 in    
Sea Level Pressure  
Sea Level Pressure 30.17 in    
Wind  
Wind Speed 8 mph (WSW)    
Max Wind Speed 23 mph    
Max Gust Speed 29 mph    
Visibility 10 miles    
Events Rain , Snow    
T = Trace of Precipitation, MM = Missing Value Source: NWS Daily Summary

Daily Weather History Graph

Daily Weather History Graph

Search for Another Location

Airport or City:

Trip Planner

Search our weather history database for the weather conditions in past years. The results will help you decide how hot, cold, wet, or windy it might be!

Date:

Astronomy

Mar. 19, 2013 Rise Set
Actual Time 7:38 AM CDT 7:45 PM CDT
Civil Twilight 7:11 AM CDT 8:12 PM CDT
Nautical Twilight 6:39 AM CDT 8:44 PM CDT
Astronomical Twilight 6:06 AM CDT 9:16 PM CDT
Moon 12:28 PM CDT (3/19) 2:34 AM CDT (3/19)
Length of Visible Light 13h 01m
Length of Day
12h 06m
Waxing Crescent, 50% of the Moon is Illuminated
Mar 19
Waxing Crescent
Mar 19
First Quarter
Mar 27
Full
Apr 2
Last Quarter
Apr 10
New

Hourly Weather History & Observations

Time (CDT) Temp. Windchill Dew Point Humidity Pressure Visibility Wind Dir Wind Speed Gust Speed Precip Events Conditions
12:53 AM 34.0 °F - 12.0 °F 40% 30.09 in 10.0 mi Calm Calm - N/A   Overcast
1:53 AM 33.1 °F - 15.1 °F 48% 30.08 in 10.0 mi Calm Calm - N/A   Overcast
2:53 AM 32.0 °F 26.4 °F 27.0 °F 82% 30.08 in 10.0 mi West 5.8 mph - N/A   Overcast
3:53 AM 32.0 °F - 27.0 °F 82% 30.06 in 10.0 mi Calm Calm - N/A   Overcast
4:53 AM 32.0 °F 28.7 °F 27.0 °F 82% 30.06 in 10.0 mi SE 3.5 mph - N/A   Overcast
5:53 AM 30.9 °F 27.5 °F 27.0 °F 85% 30.07 in 10.0 mi SSW 3.5 mph - N/A   Mostly Cloudy
6:53 AM 30.9 °F - 28.0 °F 89% 30.09 in 10.0 mi Calm Calm - N/A   Overcast
7:53 AM 30.9 °F 27.5 °F 28.0 °F 89% 30.13 in 10.0 mi SW 3.5 mph - N/A   Overcast
8:53 AM 32.0 °F 27.5 °F 28.9 °F 88% 30.16 in 9.0 mi SW 4.6 mph - 0.00 in   Overcast
9:53 AM 34.0 °F 28.0 °F 30.0 °F 85% 30.17 in 10.0 mi WSW 6.9 mph - N/A   Mostly Cloudy
10:53 AM 37.0 °F 29.3 °F 28.9 °F 73% 30.18 in 10.0 mi WSW 11.5 mph - N/A   Mostly Cloudy
11:53 AM 41.0 °F 32.8 °F 30.0 °F 65% 30.19 in 10.0 mi West 16.1 mph 24.2 mph N/A   Overcast
12:53 PM 43.0 °F 34.5 °F 30.0 °F 60% 30.19 in 10.0 mi West 19.6 mph 24.2 mph N/A   Overcast
1:53 PM 46.0 °F 39.0 °F 28.9 °F 51% 30.17 in 10.0 mi WSW 17.3 mph 25.3 mph 0.01 in   Mostly Cloudy
2:50 PM 37.4 °F 27.8 °F 32.0 °F 81% 30.17 in 6.0 mi NW 17.3 mph 28.8 mph 0.01 in Snow Light Snow
2:53 PM 37.0 °F 28.9 °F 32.0 °F 82% 30.22 in 4.0 mi WNW 12.7 mph 28.8 mph 0.02 in Snow Light Snow
3:18 PM 41.0 °F 33.1 °F 35.6 °F 81% 30.14 in 10.0 mi West 15.0 mph 20.7 mph 0.01 in   Scattered Clouds
3:53 PM 44.1 °F 37.1 °F 34.0 °F 68% 30.17 in 10.0 mi WSW 15.0 mph 20.7 mph 0.01 in   Scattered Clouds
4:53 PM 44.1 °F 38.6 °F 28.0 °F 53% 30.19 in 10.0 mi WNW 10.4 mph - N/A   Mostly Cloudy
5:27 PM 42.8 °F 38.0 °F 33.8 °F 70% 30.15 in 8.0 mi WSW 8.1 mph - 0.00 in Rain Light Rain
5:34 PM 42.8 °F 37.5 °F 32.0 °F 66% 30.16 in 10.0 mi WSW 9.2 mph - 0.00 in Rain Light Rain
5:53 PM 39.9 °F 35.8 °F 30.9 °F 70% 30.20 in 9.0 mi WSW 5.8 mph - 0.02 in Rain Light Rain
6:53 PM 41.0 °F 38.0 °F 33.1 °F 73% 30.21 in 10.0 mi SW 4.6 mph - 0.00 in   Overcast
7:53 PM 39.0 °F 36.8 °F 33.1 °F 79% 30.24 in 10.0 mi SW 3.5 mph - N/A   Scattered Clouds
8:53 PM 37.9 °F 34.4 °F 32.0 °F 79% 30.27 in 10.0 mi NNW 4.6 mph - N/A   Overcast
9:53 PM 36.0 °F 29.0 °F 24.1 °F 62% 30.30 in 10.0 mi NNE 9.2 mph - N/A   Mostly Cloudy
10:53 PM 35.1 °F 25.9 °F 19.9 °F 54% 30.33 in 10.0 mi NNE 13.8 mph - N/A   Mostly Cloudy
11:53 PM 32.0 °F 22.5 °F 19.9 °F 61% 30.36 in 10.0 mi NNE 12.7 mph - N/A   Overcast